Flag for U.S.A. Weather past 2 weeks in Wainwright, Alaska, U.S.A.

Now
-11 °F

Overcast.


Feels Like: -32 °F
Forecast: -2 / 20 °F
Wind: 13 mph from Southeast

Location: Wainwright Distant Early Warning

Current Time: Jan 29, 2015 at 9:48:17 PM

Latest Report: Jan 29, 2015 at 8:53 PM


Visibility: 10 mi

Pressure: 30.39 "Hg

Humidity: 70%

Dew point: -18 °F

Location of WainwrightLocation

Historic Weather in Wainwright — Graph

°F

Wainwright temperature yesterday

Maximum temperature yesterday: -26 °F (at 12:53 AM)
Minimum temperature yesterday: -28 °F (at 4:53 AM)
Average temperature yesterday: -27 °F

Past Weeks' High & Low Weather Summary

 TemperatureHumidityPressure
High7 °F (Jan 20, 2:53 PM)83% (Jan 20, 6:53 AM)30.56 "Hg (Jan 20, 6:53 AM)
Low-28 °F (Jan 27, 7:53 PM)61% (Jan 27, 12:53 PM)29.42 "Hg (Jan 16, 4:53 AM)
Average-12 °F73%29.91 "Hg
* Reported Jan 14 7:53 PM — Jan 29 7:53 PM, Wainwright, Weather by CustomWeather, © 2014

Note: Actual official high and low records may vary slightly from our data, if they occured in-between our weather recording intervals... More about our weather records

Advertising

Wainwright weather history for previous 24 hours

 ConditionsComfort  
Time TempWeatherWind HumidityBarometerVisibility
7:53 PM
Jan 29
-14 °FPassing clouds.14 mph71%30.41 "Hg10 mi
6:53 PM-16 °FClear.13 mph74%30.44 "Hg10 mi
5:53 PM-18 °FPassing clouds.10 mph73%30.46 "Hg7 mi
4:53 PM-20 °FClear.10 mph69%30.49 "Hg8 mi
3:53 PM-21 °FClear.9 mph69%30.50 "Hg9 mi
2:53 PM-23 °FSunny.8 mph73%30.53 "Hg10 mi
1:53 PM-22 °FLow clouds.9 mph73%30.54 "Hg9 mi
12:53 PM-23 °FLow clouds.7 mph73%30.54 "Hg3 mi
11:53 AM-23 °FLow clouds.8 mph77%30.55 "Hg4 mi
10:53 AM-24 °FLow clouds.8 mph76%30.55 "Hg10 mi
9:53 AM-25 °FPassing clouds.8 mph73%30.55 "Hg7 mi
8:53 AM-25 °FClear.6 mph68%30.56 "Hg10 mi
6:53 AM-25 °FClear.6 mph68%30.56 "Hg10 mi
5:53 AM-23 °FClear.6 mph65%30.56 "Hg10 mi
4:53 AM-23 °FLow clouds.5 mph69%30.55 "Hg10 mi
3:53 AM-22 °FMostly cloudy.6 mph69%30.55 "Hg10 mi
2:53 AM-22 °FLow clouds.5 mph69%30.55 "Hg10 mi
1:53 AM-25 °FPassing clouds.3 mph73%30.54 "Hg10 mi
12:53 AM-23 °FOvercast.5 mph69%30.53 "Hg10 mi
12:00 AM-26 °FPassing clouds.7 mph68%30.52 "Hg10 mi
10:53 PM
Jan 28
-27 °FClear.6 mph68%30.52 "Hg10 mi
9:53 PM-26 °FClear.7 mph64%30.51 "Hg10 mi
Weather by CustomWeather, © 2014

See weather overviewHow to use our weather pages